#timestamp,LO_Frequency,Hit,StdDev 
1679119215.7,286046998.0,N
1679119235.5,286046995.0,N
1679119255.3,286046996.1,N
1679119275.2,286046997.9,N
1679119295.0,286046991.9,Y
1679119295.9,286046991.9,P
1679119315.8,286046993.8,N
1679119335.6,286046997.6,N
1679119355.4,286046994.6,N
1679119375.3,286046994.8,N
1679119395.1,286046994.8,N
1679119415.8,286046989.7,Y
1679119435.7,286046996.5,P
1679119455.5,286046993.3,P
1679119475.4,286046994.5,P
1679119495.2,286046992.6,Y
1679119515.0,286046996.2,P
1679119515.9,286046996.2,P
1679119535.8,286046997.1,P
1679119555.6,286047001.0,N
1679119575.4,286047000.9,N
1679119595.3,286047003.2,N
1679119615.1,286047005.0,N
1679119635.9,286047001.4,N
1679119655.7,286047003.8,N
1679119675.5,286047003.9,N
1679119695.4,286047004.1,N
1679119715.2,286047005.2,N
1679119735.0,286047004.8,N
1679119735.9,286047004.8,N
1679119755.8,286047008.9,N
1679119775.6,286047006.2,N
1679119795.5,286047004.5,N
1679119815.3,286047004.4,N
1679119835.1,286046996.5,N
1679119855.9,286046997.8,N
1679119875.7,286046991.9,N
1679119895.5,286046992.3,N
1679119915.4,286046993.7,N
1679119935.2,286046992.0,N
1679119955.1,286046994.2,N
1679119956.0,286046994.2,N
1679119975.8,286046994.2,N
1679119995.6,286046995.6,N
1679120015.5,286046996.5,N
1679120035.3,286046999.7,N
1679120055.1,286047002.6,N
1679120075.9,286047000.0,N
1679120095.7,286047004.1,N
1679120115.6,286047001.9,N
1679120135.4,286047002.4,N
1679120155.2,286047000.0,N
1679120175.1,286047000.7,N
1679120176.0,286047000.7,N
1679120195.8,286046998.8,N
1679120215.7,286046996.5,N
1679120235.5,286046995.8,N
1679120255.4,286046996.7,N
1679120275.2,286046997.9,N
1679120295.0,286046998.0,N
1679120296.0,286046998.0,N
1679120315.8,286046995.3,N
1679120335.6,286046997.2,N
1679120355.5,286046999.1,N
1679120375.3,286046996.7,N
1679120395.2,286047000.4,N
1679120415.9,286047000.6,N
1679120435.7,286047001.5,N
1679120455.6,286047003.7,N
1679120475.4,286047000.0,N
1679120495.2,286047002.8,N
1679120515.1,286047002.4,N
1679120516.0,286047002.4,N
1679120535.8,286046998.5,N
1679120555.7,286046994.8,N
1679120575.5,286046990.4,Y
1679120595.3,286046987.6,P
1679120615.2,286046984.1,N
1679120635.0,286046984.8,N
1679120635.9,286046984.8,N
1679120655.8,286046982.5,N
1679120675.6,286046986.4,N
1679120695.4,286046986.1,N
1679120715.3,286046986.8,N
1679120735.1,286046983.9,Y
1679120755.8,286046996.3,P
1679120775.7,286046996.5,N
1679120795.5,286047000.0,N
1679120815.4,286046999.4,N
1679120835.2,286047000.9,N
1679120855.0,286046998.1,N
1679120855.9,286046998.1,N
1679120875.8,286047000.0,N
1679120895.6,286047000.2,N
1679120915.5,286047002.2,N
1679120935.3,286046998.5,N
1679120955.1,286046996.8,N
1679120975.9,286046995.0,N
1679120995.7,286046996.3,N
1679121015.5,286046992.9,N
1679121035.4,286046991.7,N
1679121055.2,286046995.9,N
1679121075.1,286046995.0,N
1679121076.0,286046995.0,N
1679121095.8,286046993.4,N
1679121115.6,286046997.0,N
1679121135.5,286046999.6,N
1679121155.3,286046993.4,N
1679121175.1,286046995.5,N
1679121195.9,286046993.1,N
1679121215.7,286046989.8,Y
1679121235.6,286046996.3,P
1679121255.4,286046993.2,P
1679121275.2,286046991.2,P
1679121295.1,286046990.9,Y
1679121296.0,286046990.9,P
1679121315.8,286047001.9,N
1679121335.7,286047000.6,N
1679121355.5,286046999.5,N
1679121375.3,286046999.2,N
1679121395.2,286046996.0,N
1679121415.9,286046996.5,N
1679121435.7,286047001.0,N
1679121455.6,286047002.4,N
1679121475.4,286047004.5,N
1679121495.2,286047008.7,N
1679121515.1,286047011.6,N
1679121516.0,286047011.6,N
1679121535.8,286047013.5,N
1679121555.7,286047006.6,N
1679121575.5,286047009.4,N
1679121595.3,286047013.4,N
1679121615.2,286047013.1,N
1679121635.0,286047012.8,N
1679121635.9,286047012.8,N
1679121655.8,286047010.8,N
1679121675.6,286047009.9,N
1679121695.4,286047003.7,N
1679121715.3,286047001.0,N
1679121735.1,286047001.7,N
1679121736.0,286047001.7,N
1679121755.8,286046999.7,N
1679121775.7,286047000.7,N
1679121795.5,286046998.7,N
1679121815.4,286046992.1,N
1679121835.2,286046993.5,N
1679121855.0,286046985.5,N
1679121855.9,286046985.5,N
1679121875.8,286046984.2,N
1679121895.6,286046986.1,N
1679121915.4,286046982.9,N
1679121935.3,286046984.3,N
1679121955.1,286046984.0,N
1679121975.9,286046989.3,N
1679121995.7,286046986.5,N
1679122015.5,286046982.7,N
1679122035.4,286046986.7,N
1679122055.2,286046982.6,N
1679122075.0,286046981.9,N
1679122075.9,286046981.9,N
1679122095.8,286046975.0,N
1679122115.6,286046970.8,N
1679122135.5,286046970.4,N
1679122155.3,286046962.4,Y
1679122175.1,286046960.8,P
1679122195.9,286046950.8,P
1679122215.7,286046947.9,P
1679122235.6,286046944.5,Y
1679122255.4,286046985.6,P
1679122275.2,286046992.4,N
1679122295.1,286046999.6,N
1679122296.0,286046999.6,N
1679122315.8,286047001.8,N
1679122335.6,286047005.4,N
1679122355.5,286047004.6,N
1679122375.3,286047003.7,N
1679122395.2,286047001.0,N
1679122415.9,286047001.2,N
1679122435.7,286047001.3,N
1679122455.6,286047000.2,N
1679122475.4,286046996.6,N
1679122495.2,286046998.4,N
1679122515.1,286047000.6,N
1679122516.0,286047000.6,N
1679122535.8,286046994.7,N
1679122555.7,286046991.0,N
1679122575.5,286046991.4,N
1679122595.3,286046987.0,N
1679122615.2,286046990.7,N
1679122635.9,286046998.0,N
1679122655.7,286047001.9,N
1679122675.6,286046993.4,N
1679122695.4,286046994.6,N
1679122715.2,286046991.9,N
1679122735.1,286046992.2,N
1679122736.0,286046992.2,N
1679122755.8,286046987.8,N
1679122775.7,286046983.8,N
1679122795.5,286046984.5,N
